EW0997 Weather Reports


time (UTC)temp
F
wind
direction
speed
knots
gust
knots
rain 1hr
in
rain 24hr
in
rain mn
in
humidity
%
barometer
mb
20260506203704 53 9 4.3 10.4 0.00 0.00 0.00 71 1012.1
20260506203204 53 24 5.2 7.8 0.00 0.00 0.00 71 1012.1
20260506202704 53 13 2.6 10.4 0.00 0.00 0.00 70 1012.1
20260506202205 53 23 4.3 7.8 0.00 0.00 0.00 70 1012.1
20260506201205 54 11 4.3 10.4 0.00 0.00 0.00 70 1011.9
20260506200706 54 18 5.2 8.7 0.00 0.00 0.00 71 1011.9
20260506200205 54 20 5.2 8.7 0.00 0.00 0.00 71 1011.9
20260506195705 54 17 3.5 8.7 0.00 0.00 0.00 70 1011.9
20260506195204 54 12 4.3 8.7 0.00 0.00 0.00 71 1011.8
20260506194705 54 19 2.6 10.4 0.00 0.00 0.00 71 1011.7
20260506194205 54 18 4.3 7.8 0.00 0.00 0.00 72 1011.7
20260506193205 54 30 4.3 7.0 0.00 0.00 0.00 73 1011.5
20260506192704 54 19 2.6 6.1 0.00 0.00 0.00 75 1011.5
20260506192204 54 16 1.7 4.3 0.00 0.00 0.00 75 1011.5
20260506191705 54 66 5.2 10.4 0.00 0.00 0.00 77 1011.5
20260506190705 55 74 2.6 6.1 0.00 0.00 0.00 75 1011.3
20260506190205 55 48 2.6 11.3 0.00 0.00 0.00 74 1011.3
20260506185705 55 69 3.5 11.3 0.00 0.00 0.00 71 1011.1
20260506185205 55 31 4.3 7.8 0.00 0.00 0.00 71 1011.1
20260506184704 55 25 2.6 7.8 0.00 0.00 0.00 71 1011.0
20260506184204 55 13 2.6 7.0 0.00 0.00 0.00 70 1010.9
20260506183206 55 12 1.7 4.3 0.00 0.00 0.00 71 1010.8
20260506182704 55 7 2.6 5.2 0.00 0.00 0.00 69 1010.8
20260506182204 55 19 1.7 4.3 0.00 0.00 0.00 70 1010.8
20260506181704 55 14 3.5 7.0 0.00 0.00 0.00 69 1010.7
20260506180204 55 55 5.2 10.4 0.00 0.00 0.00 67 1010.6
20260506175705 55 17 4.3 8.7 0.00 0.00 0.00 68 1010.6
20260506175204 55 23 4.3 8.7 0.00 0.00 0.00 67 1010.5
20260506174704 55 15 3.5 7.0 0.00 0.00 0.00 66 1010.4
20260506174204 56 22 5.2 7.8 0.00 0.00 0.00 65 1010.2
20260506173705 56 14 2.6 7.0 0.00 0.00 0.00 67 1010.2
20260506173204 56 22 3.5 8.7 0.00 0.00 0.00 65 1010.1
20260506172704 56 30 2.6 8.7 0.00 0.00 0.00 65 1010.1
20260506172204 56 10 2.6 7.0 0.00 0.00 0.00 65 1010.0
20260506171204 57 70 4.3 7.8 0.00 0.00 0.00 66 1009.9
20260506170704 57 47 2.6 6.1 0.00 0.00 0.00 65 1009.9
20260506170204 57 60 2.6 7.0 0.00 0.00 0.00 63 1009.9
20260506165704 57 24 2.6 10.4 0.00 0.00 0.00 65 1009.9
20260506165204 56 73 2.6 6.1 0.00 0.00 0.00 65 1009.9
20260506164204 56 136 1.7 4.3 0.00 0.00 0.00 63 1009.8
20260506163704 56 121 0.9 2.6 0.00 0.00 0.00 66 1009.9
20260506163204 56 121 0.9 2.6 0.00 0.00 0.00 64 1009.8
20260506162704 56 99 2.6 5.2 0.00 0.00 0.00 64 1009.8
20260506161704 57 102 0.9 4.3 0.00 0.00 0.00 65 1009.8
20260506161204 56 101 2.6 5.2 0.00 0.00 0.00 62 1009.7
20260506160205 56 100 1.7 5.2 0.00 0.00 0.00 60 1009.8
20260506155704 57 103 0.9 4.3 0.00 0.00 0.00 61 1009.8
20260506155204 57 77 0.9 7.0 0.00 0.00 0.00 62 1009.8
20260506154703 57 65 0.9 6.1 0.00 0.00 0.00 62 1009.8
20260506154204 56 134 1.7 4.3 0.00 0.00 0.00 60 1009.8
20260506153704 57 95 2.6 5.2 0.00 0.00 0.00 62 1009.8
20260506153206 57 110 4.3 7.8 0.00 0.00 0.00 61 1009.8
20260506152707 57 77 1.7 7.0 0.00 0.00 0.00 60 1009.8
20260506152206 57 61 1.7 7.0 0.00 0.00 0.00 60 1009.7
20260506151706 57 99 2.6 6.1 0.00 0.00 0.00 58 1009.7
20260506151206 57 109 1.7 5.2 0.00 0.00 0.00 61 1009.7
20260506150706 57 66 1.7 7.0 0.00 0.00 0.00 63 1009.6
20260506150206 57 111 2.6 7.0 0.00 0.00 0.00 63 1009.6
20260506145706 57 109 3.5 7.0 0.00 0.00 0.00 60 1009.6
20260506145206 57 87 1.7 7.8 0.00 0.00 0.00 60 1009.6
20260506144206 56 122 4.3 7.8 0.00 0.00 0.00 61 1009.7
20260506143706 57 115 5.2 10.4 0.00 0.00 0.00 61 1009.7
20260506142706 57 120 2.6 7.0 0.00 0.00 0.00 62 1009.6
20260506142206 57 111 1.7 7.0 0.00 0.00 0.00 62 1009.6
20260506141706 57 94 2.6 8.7 0.00 0.00 0.00 60 1009.6
20260506140706 59 40 4.3 12.2 0.00 0.00 0.00 54 1009.6
20260506140206 59 49 5.2 11.3 0.00 0.00 0.00 51 1009.6
20260506135706 59 18 4.3 12.2 0.00 0.00 0.00 49 1009.6
20260506135206 59 51 3.5 12.2 0.00 0.00 0.00 57 1009.6
20260506133206 57 87 2.6 7.8 0.00 0.00 0.00 59 1009.5
20260506132705 57 96 1.7 8.7 0.00 0.00 0.00 60 1009.5
20260506132206 56 69 4.3 8.7 0.00 0.00 0.00 59 1009.5
20260506131706 56 95 2.6 6.1 0.00 0.00 0.00 60 1009.4
20260506131206 57 100 1.7 6.1 0.00 0.00 0.00 59 1009.5
20260506130706 58 78 5.2 8.7 0.00 0.00 0.00 60 1009.4
20260506130206 58 46 5.2 7.8 0.00 0.00 0.00 58 1009.3
20260506125706 58 62 4.3 10.4 0.00 0.00 0.00 55 1009.3
20260506125206 58 60 5.2 10.4 0.00 0.00 0.00 58 1009.3
20260506124706 59 30 8.7 13.0 0.00 0.00 0.00 53 1009.2
20260506124206 59 35 2.6 8.7 0.00 0.00 0.00 58 1009.3
20260506123706 59 62 5.2 11.3 0.00 0.00 0.00 59 1009.2
20260506123206 59 64 5.2 8.7 0.00 0.00 0.00 58 1009.2
20260506122706 59 70 6.1 10.4 0.00 0.00 0.00 62 1009.2
20260506122208 59 46 5.2 10.4 0.00 0.00 0.00 62 1009.2
20260506121706 59 32 5.2 10.4 0.00 0.00 0.00 58 1009.1
20260506121206 60 44 5.2 10.4 0.00 0.00 0.00 59 1009.2
20260506120706 61 15 9.6 15.6 0.00 0.00 0.00 55 1009.2
20260506120206 61 35 4.3 12.2 0.00 0.00 0.00 58 1009.1
20260506115705 61 55 5.2 12.2 0.00 0.00 0.00 58 1009.1
20260506115205 59 64 5.2 10.4 0.00 0.00 0.00 59 1009.1
20260506114705 60 59 5.2 13.9 0.00 0.00 0.00 59 1009.1
20260506114206 59 17 7.0 12.2 0.00 0.00 0.00 62 1009.1
20260506113706 58 11 6.1 12.2 0.00 0.00 0.00 59 1009.1
20260506112706 60 72 5.2 11.3 0.00 0.00 0.00 63 1009.1
20260506112206 60 31 5.2 12.2 0.00 0.00 0.00 62 1009.1
20260506111706 60 61 6.1 14.8 0.00 0.00 0.00 61 1009.1
20260506111206 60 16 5.2 10.4 0.00 0.00 0.00 64 1009.1
20260506105705 60 52 7.0 13.0 0.00 0.00 0.00 65 1009.1
20260506105206 60 69 5.2 13.0 0.00 0.00 0.00 64 1009.1
20260506104705 60 71 6.1 13.9 0.00 0.00 0.00 62 1009.0
20260506104205 60 32 6.1 12.2 0.00 0.00 0.00 62 1009.1
20260506103706 59 62 7.0 12.2 0.00 0.00 0.00 68 1009.0
20260506103205 59 28 6.1 10.4 0.00 0.00 0.00 69 1009.1
20260506102706 58 13 6.1 12.2 0.00 0.00 0.00 67 1009.1
20260506102206 58 62 5.2 11.3 0.00 0.00 0.00 70 1009.0
20260506100206 57 55 5.2 10.4 0.00 0.00 0.00 74 1008.9
20260506095706 57 20 3.5 11.3 0.00 0.00 0.00 74 1008.9
20260506095205 57 7 6.1 11.3 0.00 0.00 0.00 73 1008.9
20260506094706 58 56 7.8 13.0 0.00 0.00 0.00 74 1008.9
20260506094206 57 47 7.8 11.3 0.00 0.00 0.00 76 1008.8
20260506093706 56 15 6.1 13.0 0.00 0.00 0.00 76 1008.8
20260506093206 56 57 6.1 11.3 0.00 0.00 0.00 77 1008.9
20260506092705 56 54 6.1 12.2 0.00 0.00 0.00 75 1008.8
20260506092205 57 31 6.1 11.3 0.00 0.00 0.00 73 1008.8
20260506091705 58 12 4.3 12.2 0.00 0.00 0.00 72 1008.6
20260506090705 59 71 6.1 11.3 0.00 0.00 0.00 71 1008.7
20260506090205 59 76 7.8 13.0 0.00 0.00 0.00 71 1008.7
20260506085706 59 54 8.7 14.8 0.00 0.00 0.00 69 1008.7
20260506084205 58 19 7.8 15.6 0.00 0.00 0.00 70 1008.5
20260506083706 58 14 7.8 13.9 0.00 0.00 0.00 71 1008.5
20260506083206 58 64 7.8 13.0 0.00 0.00 0.00 73 1008.5
20260506082705 57 59 5.2 10.4 0.00 0.00 0.00 76 1008.4
20260506082205 57 3 5.2 11.3 0.00 0.00 0.00 78 1008.4
20260506081706 56 23 4.3 8.7 0.00 0.00 0.00 79 1008.4
20260506081205 56 32 7.0 10.4 0.00 0.00 0.00 77 1008.4
20260506080705 56 19 4.3 8.7 0.00 0.00 0.00 78 1008.4
20260506080205 55 16 5.2 11.3 0.00 0.00 0.00 79 1008.3
20260506073205 54 23 6.1 13.9 0.00 0.00 0.00 80 1008.4
20260506072705 54 7 7.0 11.3 0.00 0.00 0.00 81 1008.4
20260506072206 54 24 5.2 12.2 0.00 0.00 0.00 83 1008.4
20260506071205 53 4 2.6 8.7 0.00 0.00 0.00 83 1008.4
20260506070705 53 17 5.2 10.4 0.00 0.00 0.00 83 1008.4
20260506070205 53 7 6.1 10.4 0.00 0.00 0.00 83 1008.3
20260506062205 53 15 4.3 7.0 0.00 0.00 0.00 82 1008.2
20260506061705 53 0 5.2 7.8 0.00 0.00 0.00 83 1008.2
20260506061205 52 0 3.5 7.0 0.00 0.00 0.00 84 1008.2
20260506060706 52 4 5.2 10.4 0.00 0.00 0.00 84 1008.2
20260506060205 52 15 5.2 7.8 0.00 0.00 0.00 84 1008.2
20260506051205 51 19 4.3 8.7 0.00 0.00 0.00 85 1008.1
20260506050705 51 21 6.1 8.7 0.00 0.00 0.00 85 1008.2
20260506050205 51 3 2.6 6.1 0.00 0.00 0.00 84 1008.2
20260506044705 51 10 5.2 10.4 0.00 0.00 0.00 84 1008.2
20260506044205 51 12 5.2 10.4 0.00 0.00 0.00 84 1008.2
20260506043704 51 10 6.1 11.3 0.00 0.00 0.00 84 1008.2
20260506043205 51 16 6.1 11.3 0.00 0.00 0.00 84 1008.2
20260506041205 51 13 4.3 7.8 0.00 0.00 0.00 84 1008.3
20260506040705 51 22 7.0 10.4 0.00 0.00 0.00 84 1008.3
20260506040205 51 13 4.3 10.4 0.00 0.00 0.00 84 1008.4
20260506035705 51 25 5.2 8.7 0.00 0.00 0.00 85 1008.4
20260506035205 51 10 4.3 12.2 0.00 0.00 0.00 85 1008.3
20260506034704 51 17 7.8 10.4 0.00 0.00 0.00 85 1008.4
20260506034205 50 10 2.6 8.7 0.00 0.00 0.00 86 1008.4
20260506033705 50 12 4.3 7.0 0.00 0.00 0.00 86 1008.4
20260506032705 50 15 4.3 7.8 0.00 0.00 0.00 85 1008.5
20260506032205 50 17 2.6 4.3 0.00 0.00 0.00 85 1008.5
20260506031705 50 20 5.2 10.4 0.00 0.00 0.00 85 1008.5
20260506031205 50 14 2.6 7.0 0.00 0.00 0.00 85 1008.5
20260506030705 50 18 4.3 8.7 0.00 0.00 0.00 84 1008.6
20260506030205 51 11 3.5 7.8 0.00 0.00 0.00 84 1008.6
20260506025705 51 12 2.6 6.1 0.00 0.00 0.00 84 1008.7
20260506025204 50 12 4.3 7.8 0.00 0.00 0.00 84 1008.7
20260506024705 50 14 4.3 7.0 0.00 0.00 0.00 84 1008.7
20260506024204 50 10 2.6 7.0 0.00 0.00 0.00 84 1008.7
20260506023705 50 15 5.2 8.7 0.00 0.00 0.00 84 1008.7
20260506023205 50 6 4.3 7.8 0.00 0.00 0.00 84 1008.7
20260506022704 50 4 5.2 8.7 0.00 0.00 0.00 84 1008.8
20260506022204 50 13 5.2 7.8 0.00 0.00 0.00 84 1008.8
20260506021704 50 15 5.2 10.4 0.00 0.00 0.00 84 1008.7
20260506021204 50 10 3.5 7.8 0.00 0.00 0.00 84 1008.8
20260506020704 50 3 4.3 7.0 0.00 0.00 0.00 84 1008.8
20260506020205 50 17 4.3 7.8 0.00 0.00 0.00 84 1008.8
20260506015705 50 8 5.2 10.4 0.00 0.00 0.00 84 1008.8
20260506015205 50 353 5.2 10.4 0.00 0.00 0.00 84 1008.8
20260506014704 50 10 3.5 8.7 0.00 0.00 0.00 84 1008.8
20260506014205 50 356 3.5 8.7 0.00 0.00 0.00 84 1008.8
20260506013704 50 350 3.5 7.0 0.00 0.00 0.00 84 1008.9
20260506013205 50 8 4.3 7.0 0.00 0.00 0.00 83 1008.9
20260506012705 50 357 4.3 7.8 0.00 0.00 0.00 84 1008.9
20260506012204 50 356 3.5 7.8 0.00 0.00 0.00 83 1008.9
20260506011705 50 12 4.3 7.0 0.00 0.00 0.00 84 1008.9
20260506011205 50 8 4.3 7.8 0.00 0.00 0.00 83 1008.9
20260506010704 50 19 5.2 8.7 0.00 0.00 0.00 83 1009.0
20260506010204 50 9 4.3 7.8 0.00 0.00 0.00 84 1009.1
20260506005205 50 24 5.2 10.4 0.00 0.00 0.00 84 1009.1
20260506003704 50 18 4.3 7.0 0.00 0.00 0.00 84 1009.2
20260506003205 50 23 4.3 8.7 0.00 0.00 0.00 84 1009.3
20260506002704 50 13 4.3 10.4 0.00 0.00 0.00 84 1009.3
20260506001705 50 23 7.0 11.3 0.00 0.00 0.00 83 1009.4
20260506001205 50 17 5.2 10.4 0.00 0.00 0.00 84 1009.5
20260506000704 50 15 6.1 12.2 0.00 0.00 0.00 84 1009.5
20260506000205 50 0 5.2 10.4 0.00 0.00 0.00 84 1009.5
20260505235705 50 19 4.3 8.7 0.00 0.00 0.00 83 1009.5
20260505235204 50 10 4.3 7.8 0.00 0.00 0.00 83 1009.5
20260505234704 50 19 5.2 8.7 0.00 0.00 0.00 83 1009.5
20260505234204 50 14 4.3 7.8 0.00 0.00 0.00 83 1009.6
20260505233705 50 11 5.2 11.3 0.00 0.00 0.00 84 1009.6
20260505233205 49 2 3.5 8.7 0.00 0.00 0.00 83 1009.7
20260505232704 49 8 4.3 8.7 0.00 0.00 0.00 83 1009.7
20260505232205 49 14 4.3 8.7 0.00 0.00 0.00 83 1009.8
20260505231704 49 8 4.3 7.0 0.00 0.00 0.00 83 1009.8
20260505231204 49 11 2.6 7.0 0.00 0.00 0.00 83 1009.9
20260505230704 49 23 5.2 8.7 0.00 0.00 0.00 83 1009.9
20260505230204 49 19 4.3 6.1 0.00 0.00 0.00 83 1009.9
20260505225704 49 25 4.3 6.1 0.00 0.00 0.00 83 1009.9
20260505224705 49 0 5.2 7.8 0.00 0.00 0.00 82 1009.9
20260505224204 49 14 4.3 8.7 0.00 0.00 0.00 82 1009.9
20260505223704 49 28 3.5 7.8 0.00 0.00 0.00 81 1009.9
20260505223204 49 17 3.5 7.8 0.00 0.00 0.00 81 1010.0
20260505222706 50 21 4.3 8.7 0.00 0.00 0.00 81 1009.9
20260505222205 50 10 4.3 8.7 0.00 0.00 0.00 80 1010.0
20260505221704 50 11 5.2 8.7 0.00 0.00 0.00 80 1010.0
20260505221205 50 15 4.3 10.4 0.00 0.00 0.00 79 1010.1
20260505220204 51 11 4.3 8.7 0.00 0.00 0.00 78 1010.1
20260505215704 51 17 5.2 10.4 0.00 0.00 0.00 78 1010.1
20260505215204 51 17 6.1 10.4 0.00 0.00 0.00 78 1010.2
20260505214704 51 16 5.2 12.2 0.00 0.00 0.00 77 1010.1
20260505213204 51 15 5.2 7.8 0.00 0.00 0.00 77 1010.3
20260505212704 51 21 7.8 10.4 0.00 0.00 0.00 77 1010.3
20260505212204 51 15 5.2 8.7 0.00 0.00 0.00 78 1010.3
20260505211704 51 25 7.8 11.3 0.00 0.00 0.00 77 1010.3
20260505211203 51 17 4.3 10.4 0.00 0.00 0.00 77 1010.3
20260505210704 51 23 6.1 8.7 0.00 0.00 0.00 77 1010.3
20260505210204 51 8 3.5 8.7 0.00 0.00 0.00 77 1010.4
20260505205204 51 19 6.1 10.4 0.00 0.00 0.00 77 1010.4
20260505204703 51 15 4.3 11.3 0.00 0.00 0.00 76 1010.4
20260505204203 51 20 6.1 10.4 0.00 0.00 0.00 77 1010.5